Weather History for The Villages, FL

Change the Weather History Date:

Monday, July 22, 2013

  Actual Average (KLEE) Record (KLEE)
Temperature  
Mean Temperature 81 °F -  
Max Temperature 87 °F 90 °F 97 °F (2011)
Min Temperature 75 °F 72 °F 67 °F (1967)
Cooling Degree Days 16    
Growing Degree Days 31 (Base 50)    
Moisture  
Dew Point 75 °F    
Average Humidity 91    
Maximum Humidity 100    
Minimum Humidity 66    
Precipitation  
Precipitation 0.05 in - - ()
Sea Level Pressure  
Sea Level Pressure 30.10 in    
Wind  
Wind Speed 4 mph (SSW)    
Max Wind Speed 12 mph    
Max Gust Speed 17 mph    
Visibility 3 miles    
Events Rain    
Averages and records for this station are not official NWS values.
T = Trace of Precipitation, MM = Missing Value Source: NWS Daily Summary

Daily Weather History Graph

Daily Weather History Graph

Search for Another Location

Airport:

Trip Planner

Search our weather history database for the weather conditions in past years. The results will help you decide how hot, cold, wet, or windy it might be!

Date:

Astronomy

Jul. 22, 2013 Rise Set
Actual Time 6:43 AM EDT 8:25 PM EDT
Civil Twilight 6:17 AM EDT 8:51 PM EDT
Nautical Twilight 5:45 AM EDT 9:22 PM EDT
Astronomical Twilight 5:12 AM EDT 9:55 PM EDT
Moon 8:17 PM EDT (7/22) 6:33 AM EDT (7/22)
Length of Visible Light 14h 34m
Length of Day
13h 41m
Full, 100% of the Moon is Illuminated
Jul 22
Full
Jul 22
Full
Jul 29
Last Quarter
Aug 6
New
Aug 14
First Quarter

Hourly Weather History & Observations

Time (EDT) Temp. Heat Index Dew Point Humidity Pressure Visibility Wind Dir Wind Speed Gust Speed Precip Events Conditions
12:15 AM 78.8 °F - 75.2 °F 89% 30.12 in 3.0 mi Calm Calm - N/A   Mist
12:35 AM 78.8 °F - 75.2 °F 89% 30.12 in 3.0 mi South 5.8 mph - N/A   Mist
12:55 AM 77.0 °F - 75.2 °F 94% 30.12 in 3.0 mi SSE 5.8 mph - N/A   Mist
1:35 AM 75.2 °F - 75.2 °F 100% 30.10 in 4.0 mi SSW 4.6 mph - N/A   Mist
1:55 AM 75.2 °F - 73.4 °F 94% 30.10 in 3.0 mi South 3.5 mph - N/A   Mist
2:15 AM 75.2 °F - 75.2 °F 100% 30.10 in 3.0 mi SW 3.5 mph - N/A   Mist
2:35 AM 75.2 °F - 73.4 °F 94% 30.09 in 3.0 mi South 3.5 mph - 0.01 in   Mist
2:55 AM 75.2 °F - 75.2 °F 100% 30.08 in 3.0 mi South 4.6 mph - 0.01 in   Mist
3:15 AM 75.2 °F - 75.2 °F 100% 30.08 in 3.0 mi Calm Calm - N/A   Mist
3:35 AM 75.2 °F - 73.4 °F 94% 30.08 in 2.5 mi South 5.8 mph - N/A   Mist
3:55 AM 75.2 °F - 73.4 °F 94% 30.07 in 3.0 mi SSW 4.6 mph - N/A   Mist
4:15 AM 75.2 °F - 73.4 °F 94% 30.07 in 2.5 mi South 4.6 mph - N/A   Mist
4:35 AM 75.2 °F - 73.4 °F 94% 30.07 in 2.5 mi South 3.5 mph - N/A   Mist
4:55 AM 75.2 °F - 73.4 °F 94% 30.07 in 2.5 mi South 4.6 mph - N/A   Mist
5:15 AM 75.2 °F - 73.4 °F 94% 30.08 in 2.5 mi South 4.6 mph - N/A   Mist
5:35 AM 75.2 °F - 75.2 °F 100% 30.08 in 1.8 mi Calm Calm - N/A   Mist
5:55 AM 75.2 °F - 75.2 °F 100% 30.08 in 2.0 mi Calm Calm - 0.01 in   Mist
6:15 AM 75.2 °F - 75.2 °F 100% 30.08 in 1.8 mi Calm Calm - N/A   Mist
6:35 AM 75.2 °F - 73.4 °F 94% 30.09 in 1.5 mi Calm Calm - N/A   Mist
7:35 AM 75.2 °F - 75.2 °F 100% 30.11 in 1.8 mi South 3.5 mph - N/A   Mist
7:55 AM 77.0 °F - 75.2 °F 94% 30.11 in 2.0 mi South 5.8 mph - N/A   Mist
8:35 AM 80.6 °F 87.1 °F 77.0 °F 89% 30.12 in 1.8 mi South 6.9 mph - N/A   Mist
10:35 AM 86.0 °F 95.1 °F 75.2 °F 70% 30.12 in 3.0 mi SSW 11.5 mph - N/A   Haze
10:55 AM 87.8 °F 97.6 °F 75.2 °F 66% 30.12 in 3.0 mi SSW 5.8 mph - N/A   Haze
11:15 AM 87.8 °F 97.6 °F 75.2 °F 66% 30.12 in 3.0 mi SSW 9.2 mph - N/A   Haze
11:35 AM 84.2 °F 92.3 °F 75.2 °F 74% 30.12 in 2.5 mi WNW 9.2 mph - N/A Rain Light Rain
11:55 AM 80.6 °F 86.2 °F 75.2 °F 84% 30.13 in 1.0 mi WNW 11.5 mph 17.3 mph N/A Rain Heavy Rain
12:15 PM 78.8 °F - 77.0 °F 94% 30.13 in 2.0 mi South 3.5 mph - N/A   Mist
12:35 PM 80.6 °F 87.1 °F 77.0 °F 89% 30.13 in 2.5 mi SW 11.5 mph - 0.01 in   Mist
12:55 PM 78.8 °F - 73.4 °F 83% 30.13 in 3.0 mi West 6.9 mph - 0.01 in   Light Drizzle
1:15 PM 80.6 °F 85.4 °F 73.4 °F 79% 30.13 in 3.0 mi SSW 5.8 mph - N/A   Haze
4:15 PM 80.6 °F 85.4 °F 73.4 °F 79% 30.10 in 3.0 mi North 6.9 mph - N/A   Haze
4:35 PM 80.6 °F 85.4 °F 73.4 °F 79% 30.09 in 3.0 mi North 4.6 mph - N/A   Haze
4:55 PM 78.8 °F - 73.4 °F 83% 30.09 in 3.0 mi NNE 4.6 mph - N/A   Haze
5:15 PM 80.6 °F 85.4 °F 73.4 °F 79% 30.09 in 3.0 mi North 4.6 mph - N/A   Haze
6:15 PM 80.6 °F 86.2 °F 75.2 °F 84% 30.08 in 3.0 mi Calm Calm - N/A   Haze
7:35 PM 80.6 °F 86.2 °F 75.2 °F 84% 30.08 in 3.0 mi ESE 4.6 mph - 0.01 in   Haze
9:15 PM 75.2 °F - 73.4 °F 94% 30.10 in 4.0 mi Calm Calm - N/A   Mist
9:35 PM 75.2 °F - 73.4 °F 94% 30.10 in 5.0 mi Calm Calm - N/A   Mist
9:55 PM 75.2 °F - 73.4 °F 94% 30.10 in 5.0 mi Calm Calm - N/A   Mist
10:15 PM 75.2 °F - 75.2 °F 100% 30.10 in 4.0 mi Calm Calm - N/A   Mist
10:35 PM 75.2 °F - 75.2 °F 100% 30.11 in 4.0 mi Calm Calm - N/A   Mist
10:55 PM 75.2 °F - 75.2 °F 100% 30.11 in 4.0 mi Calm Calm - 0.01 in   Mist
11:15 PM 75.2 °F - 75.2 °F 100% 30.10 in 1.8 mi Calm Calm - N/A   Mist
11:55 PM 75.2 °F - 75.2 °F 100% 30.10 in 3.0 mi Calm Calm - N/A   Mist